Location: Baix
(44.7118°N, 4.7648°E)
Time: 18:54:47
(UTC+00:00)

DNEPR-1 R/B - Pass Details

Date: 07 August 2020
Orbit: 572 x 1350 km, 64.6° (Epoch: 24 September)

Event Time Altitude Azimuth Distance (km) Brightness Sun altitude
Rises 01:18:54 0° 325° (NW) 3,669 7.9 -25.5°
Reaches altitude 10° 01:21:45 10° 329° (NNW) 2,588 7.1 -25.2°
Maximum altitude 01:27:34 60° 49° (NE) 885 4.5 -24.8°
Enters shadow 01:31:06 18° 125° (SE) 1,671 5.7 -24.5°
